Other Public Products
Issued by NWS Grand Forks, ND

Home | Current Version | Previous Version | Text Only | Print | Product List | Glossary Off
Versions: 1 2 3 4 5 6 7 8 9 10 11 12 13 14 15 16 17 18 19 20 21 22 23 24 25 26 27 28 29 30 31 32 33 34 35 36 37 38 39 40 41 42 43 44 45 46 47 48 49 50

000
FPUS83 KFGF 300931
OPUFGF
PRAIRIE TO PINES WEATHER ROUNDUP
NATIONAL WEATHER SERVICE EASTERN NORTH DAKOTA/GRAND FORKS ND
400 AM CDT THU JUL 30 2015

 **SATELLITE DATA USED TO AUGMENT SKY COVER AT AUTOMATED STATIONS**
 *****  WEATHER ACROSS EASTERN NORTH DAKOTA  *****

CITY           SKY/WX    TMP DP  RH WIND       PRES   REMARKS
GRAND FORKS    CLEAR     63  57  81 W9        29.94R
GRAND FORKS AF CLEAR     63  57  79 W9        29.95S
GRAND CITY NWS   N/A     61 N/A N/A W10         N/A
BUXTON         NOT AVBL
DEVILS LAKE    CLEAR     61  50  67 W9        30.00S
FARGO          CLEAR     61  55  81 W8        29.98R
WAHPETON ARPT  SUNNY     57  52  82 W7        30.02S
$$

 *****  WEATHER ACROSS CENTRAL AND WESTERN NORTH DAKOTA  *****

CITY           SKY/WX    TMP DP  RH WIND       PRES   REMARKS
JAMESTOWN      CLEAR     60  53  77 W7        30.05R
BISMARCK       CLEAR     57  50  77 CALM      30.11R
MINOT          PTCLDY    63  51  65 W14       30.07R
MINOT AFB      PTCLDY    61  57  85 W12       30.05S
GARRISON         N/A     56  51  84 CALM      30.08S
WILLISTON      PTCLDY    57  52  83 N6        30.14R
DICKINSON      CLEAR     51  45  79 S3        30.14R
HETTINGER      CLEAR     46  42  86 CALM      30.19R
$$

 *****  OTHER OBSERVATIONS NORTHEAST NORTH DAKOTA  *****

CITY           SKY/WX    TMP DP  RH WIND       PRES   REMARKS
WALHALLA       FAIR      63  59  88 MISG      29.93S
LANGDON        FAIR      55  54  94 W8        29.98R
CAVALIER       FAIR      63  55  77 W8        29.93R
GRAFTON        FAIR      63  57  82 W10       29.94R
CANDO          FAIR      55  54  94 W9        30.01R
FORT TOTTEN    NOT AVBL
ROLLA          FAIR      61  54  77 W13       30.02R
RUGBY          NOT AVBL
 ***** THE ABOVE OBSERVATIONS ARE NON NWS ARE NOT QUALITY
        CONTROLLED AND MAY MIS-REPORT RAIN FOR SNOW...
$$

 *****  OTHER OBSERVATIONS SOUTHEAST NORTH DAKOTA *****

CITY           SKY/WX    TMP DP  RH WIND       PRES   REMARKS
COOPERSTOWN    NOT AVBL
VALLEY CITY    FAIR      59  57  94 W10       30.04R
OAKES            N/A     55  55 100 W8        30.07S
GWINNER        FAIR      59  54  82 W12       30.06S
BUFFALO        NOT AVBL
WYNDMERE       NOT AVBL
 ***** THE ABOVE OBSERVATIONS ARE NON NWS ARE NOT QUALITY
       CONTROLLED AND MAY MIS-REPORT RAIN FOR SNOW...
$$

  *****  WEATHER ACROSS NORTHERN MINNESOTA  *****

CITY           SKY/WX    TMP DP  RH WIND       PRES   REMARKS
FLAG ISLAND    PTCLDY    63  57  82 NW13      29.87R
WARROAD        CLEAR     57  54  88 W8        29.91R
ROSEAU         MOCLDY    61  55  82 W5        29.91R
HALLOCK        CLEAR     57  55  94 CALM      29.92R
THF RVR FALLS  CLEAR     59  55  88 W8        29.94S
HALSTAD        NOT AVBL
FOSSTON        CLEAR     52  52 100 CALM      29.97R
BAUDETTE       CLEAR     57  52  83 W6        29.89R
WASKISH        CLEAR     64  59  82 W13G18    29.91R
CROOKSTON      CLEAR     61  57  88 W7        29.96R
$$
  *****  WEATHER ACROSS CENTRAL AND WEST MINNESOTA  *****

CITY           SKY/WX    TMP DP  RH WIND       PRES   REMARKS
BEMIDJI        CLEAR     60  56  86 W7        29.95R
PARK RAPIDS    CLEAR     58  54  86 W7        29.98R
WADENA         CLEAR     59  54  82 SW6       30.00S
DETROIT LAKES  CLEAR     64  54  68 W9        30.01R
MOORHEAD       CLEAR     63  55  77 W8        30.00R
FERGUS FALLS   CLEAR     57  54  88 CALM      30.02R
ELBOW LAKE     FAIR      57  53  87 SW7       30.03R
MORRIS MN      CLEAR     61  54  77 W8        30.03S
STAPLES        CLEAR     61  54  77 W7        29.99S
WHEATON        CLEAR     61  54  77 SW7       30.06R
$$
  *****  WEATHER ELSEWHERE ACROSS MINNESOTA  *****

CITY           SKY/WX    TMP DP  RH WIND       PRES   REMARKS
DULUTH         CLEAR     61  55  81 W10       29.90R
INTRNTL FALLS  CLEAR     58  54  86 W8        29.86R
ELY            CLEAR     61  54  77 W9G16     29.85R
CLOQUET        CLEAR     63  54  72 SW8       29.93R
BRAINERD       CLEAR     64  56  75 W8        29.98R
HIBBING        CLEAR     61  53  75 W6        29.90R
ALEXANDRIA     CLEAR     63  54  72 W8        30.04R
SAINT CLOUD    CLEAR     62  55  77 W7        29.99F
MINNEAPOLIS    CLEAR     66  55  67 SW6       30.01S
$$

  *****  WEATHER ACROSS SOUTH DAKOTA  *****

CITY           SKY/WX    TMP DP  RH WIND       PRES   REMARKS
SIOUX FALLS    CLEAR     62  57  83 W3        30.13R
BROOKINGS      CLEAR     61  52  72 S3        30.13S
WATERTOWN      CLEAR     59  54  83 SW6       30.10S
HURON          CLEAR     58  53  84 W5        30.10S
SISSETON         N/A     66  53  63 W15       30.05R
ABERDEEN       CLEAR     55  52  89 SW3       30.10R
MITCHELL       CLEAR     60  56  86 CALM      30.12S
PIERRE         CLEAR     57  48  72 CALM      30.12S
MOBRIDGE       CLEAR     55  53  93 CALM      30.12R
RAPID CITY     CLEAR     57  47  69 N9        30.22S
$$

  *****  SOME WEATHER IN NEARBY STATES *****

CITY           SKY/WX    TMP DP  RH WIND       PRES   REMARKS
GLASGOW MT     PTCLDY    60  53  77 N6        30.12R
GREAT FALLS MT CLEAR     54  44  69 NE8       30.24R
CHEYENNE WY    CLEAR     56  47  71 W7        30.36S
SCOTTSBLUFF NE CLEAR     61  49  64 E6        30.25S
OMAHA NE       CLEAR     65  60  84 SE7       30.17R
DES MOINES IA  CLEAR     65  58  78 SW6       30.13S
DAVENPORT IA   CLEAR     63  59  87 W7        30.09S
CHICAGO IL     CLEAR     69  57  65 W9        30.02R
EAU CLAIRE WI  CLEAR     63  55  75 SW10      29.98R
LA CROSSE WI   CLEAR     70  55  59 W8        30.02R
$$

  *****  SOME NATIONAL WEATHER *****

CITY           SKY/WX    TMP DP  RH WIND       PRES   REMARKS
LA GUARDIA NY  PTCLDY    80  71  74 SW6       29.90F
RALEIGH NC     MOCLDY    75  70  84 S3        29.97S
ATLANTA GA     MOCLDY    78  73  84 SE5       29.96S
NEW ORLEANS LA MOCLDY    79  75  87 W6        29.99S
OKLAHOMA CITY  PTCLDY    79  73  82 NE7       30.11S
ALBUQUERQUE NM CLOUDY    67  60  78 W3        30.35R
SALT LAKE CITY PTCLDY    64  38  38 SE5       30.25R
LOS ANGELES CA PTCLDY    68  63  84 NW7       29.98F
BOISE ID       CLEAR     66  38  35 SE8       30.17R
SEATTLE WA     CLEAR     71  53  52 N10       30.10F
$$

*** WEATHER ACROSS MANITOBA...SASKATCHEWAN AND ONTARIO ***
                ***ONTARIO***

CITY           SKY/WX    TMP DP  RH WIND       PRES   REMARKS
GERALDTON      DRZL/FOG  59  57  94 W9        29.53R VSB 1
THUNDER BAY    LGT RAIN  63  59  88 NW15G22   29.68R
SIOUX LOOKOUT  CLOUDY    59  54  82 NW14G24   29.75R
TORONTO        PTCLDY    73  63  68 W9        29.81R
BIG TROUT LK   LGT RAIN  55  54  94 NW16G31   29.44S
PICKLE LAKE    NOT AVBL
DRYDEN         CLOUDY    61  52  72 NW12G23   29.80R
KENORA         PTCLDY    57  55  94 NW7       29.86R
$$
                *** MANITOBA***

CITY           SKY/WX    TMP DP  RH WIND       PRES   REMARKS
BRANDON        MOCLDY    57  55  94 W9        29.95S
DAUPHIN        PTCLDY    61  57  88 W10       29.90R
ISLAND LAKE    CLOUDY    59  54  82 NW12      29.69S
PILOT MOUND      N/A     59  54  82 W5          N/A
THE PAS        MOCLDY    61  55  82 W7        29.82R
THOMPSON       NOT AVBL
WINNIPEG       PTCLDY    57  55  94 SW7       29.89S
LYNN LAKE        N/A    N/A N/A N/A MISG        N/A
CHURCHILL      LGT RAIN  48  48 100 N15G21    29.63R FOG
GILLAM         MOCLDY    57  54  88 NW20      29.62R
$$
                ***SASKATCHEWAN***

CITY           SKY/WX    TMP DP  RH WIND       PRES   REMARKS
ESTEVAN        LGT RAIN  57  55  94 SW5       30.07S
KINDERSLEY     PTCLDY    48  46  93 S2        30.15R
LLOYDMINSTER   CLEAR     52  48  87 W9        30.10R
PRINCE ALBERT  PTCLDY    57  52  82 W9        29.96S
REGINA         CLEAR     54  52  94 W7        30.08S
YORKTON        CLEAR     57  54  88 W10       29.98R


USA.gov is the U.S. government's official web portal to all federal, state and local government web resources and services.